DW8427 Weather Reports


time (UTC)temp
F
wind
direction
speed
knots
gust
knots
rain 1hr
in
rain 24hr
in
rain mn
in
humidity
%
barometer
mb
20260504231501 56 111 0.0 0.0 0.06 0.15 0.15 87 1014.9
20260504230106 56 86 0.0 2.6 0.05 0.12 0.12 86 1015.0
20260504224608 56 135 0.0 0.0 0.05 0.11 0.11 86 1015.1
20260504223103 56 108 0.0 1.7 0.05 0.10 0.10 85 1015.1
20260504221603 56 81 0.0 0.9 0.04 0.09 0.09 85 1015.3
20260504220058 56 86 0.0 1.7 0.02 0.07 0.07 84 1015.2
20260504214613 56 85 0.0 0.0 0.01 0.06 0.06 82 1015.3
20260504213111 57 115 0.0 0.0 0.00 0.05 0.05 81 1015.3
20260504211556 57 82 0.0 0.9 0.00 0.05 0.05 79 1015.4
20260504210058 57 105 0.0 0.9 0.00 0.05 0.05 80 1015.4
20260504204555 57 79 0.0 0.0 0.01 0.05 0.05 79 1015.2
20260504203103 57 115 0.0 0.9 0.01 0.05 0.05 79 1015.2
20260504201608 57 150 0.0 0.9 0.02 0.05 0.05 81 1015.1
20260504200052 57 134 0.0 0.0 0.03 0.05 0.05 82 1015.2
20260504194554 57 111 0.0 0.0 0.02 0.04 0.04 81 1015.3
20260504193051 57 88 0.0 0.9 0.02 0.04 0.04 79 1015.3
20260504191558 57 106 0.0 1.7 0.01 0.03 0.03 78 1015.3
20260504190107 57 121 0.0 2.6 0.00 0.02 0.02 79 1015.3
20260504184603 56 147 0.0 3.5 0.00 0.02 0.02 79 1015.4
20260504183045 56 111 0.0 4.3 0.00 0.02 0.02 81 1015.5
20260504181547 56 172 0.0 6.1 0.01 0.02 0.02 80 1015.6
20260504180044 55 150 0.0 3.5 0.02 0.02 0.02 82 1015.5
20260504174542 55 123 0.0 0.9 0.02 0.02 0.02 82 1015.4
20260504173039 55 141 0.0 0.0 0.02 0.02 0.02 82 1015.1
20260504171538 56 120 0.0 2.6 0.01 0.01 0.01 80 1015.1
20260504081559 55 130 0.0 1.7 0.00 0.00 0.00 77 1014.0
20260504044544 58 115 0.0 0.0 0.00 0.00 0.00 71 1013.1
20260504043039 59 151 0.0 1.7 0.00 0.00 0.00 70 1013.0
20260504041537 60 103 0.0 1.7 0.00 0.00 0.00 69 1012.8
20260504040041 60 122 0.0 1.7 0.00 0.00 0.00 67 1012.6
20260504034536 61 204 0.0 1.7 0.00 0.00 0.00 65 1012.5
20260504033048 62 87 0.0 0.9 0.00 0.00 0.00 64 1012.3
20260504031536 62 111 0.0 0.9 0.00 0.00 0.00 63 1012.2
20260504030034 63 160 0.0 3.5 0.00 0.00 0.00 61 1012.0
20260504024543 64 239 0.0 2.6 0.00 0.00 0.00 59 1011.8
20260504023033 65 142 0.0 0.9 0.00 0.00 0.00 58 1011.7
20260504021534 65 96 0.0 6.1 0.00 0.00 0.00 59 1011.5
20260504020032 65 219 0.0 1.7 0.00 0.00 0.00 58 1011.4
20260504014532 67 143 0.0 2.6 0.00 0.00 0.00 57 1011.3
20260504013031 68 89 0.0 5.2 0.00 0.00 0.00 56 1011.2
20260504011530 68 127 0.0 1.7 0.00 0.00 0.00 56 1011.1
20260504010030 68 82 0.0 3.5 0.00 0.00 0.00 56 1011.1
20260504004540 68 100 0.0 2.6 0.00 0.00 0.00 55 1011.1
20260504003029 69 129 0.0 3.5 0.00 0.00 0.00 54 1011.1
20260504001528 69 224 0.0 0.0 0.00 0.00 0.00 56 1010.9
20260504000025 68 198 0.0 1.7 0.00 0.00 0.00 58 1011.1
20260503234524 67 168 0.0 0.9 0.00 0.00 0.00 59 1011.3
20260503233029 68 92 0.0 0.0 0.00 0.00 0.00 58 1011.5